Defiance, OH

12:32 AM EST on February 13, 2016 (GMT -0500)
Defiance Memorial

Weather History for KDFI - October, 2012

Change the Weather History Date:

Thursday, October 25, 2012

  Actual Average Record
Temperature  
Mean Temperature 67 °F -  
Max Temperature 77 °F 60 °F - (-1)
Min Temperature 57 °F 38 °F - (-1)
Cooling Degree Days 2    
Growing Degree Days 17 (Base 50)    
Moisture  
Dew Point 53 °F    
Average Humidity 62    
Maximum Humidity 81    
Minimum Humidity 43    
Precipitation  
Precipitation 0.00 in - - ()
Sea Level Pressure  
Sea Level Pressure 29.94 in    
Wind  
Wind Speed 9 mph (South)    
Max Wind Speed 21 mph    
Max Gust Speed 28 mph    
Visibility 10 miles    
Events      
Averages and records for this station are not official NWS values.
T = Trace of Precipitation, MM = Missing Value Source: NWS Daily Summary

Daily Weather History Graph

Daily Weather History Graph

Search for Another Location

Airport or City:

Trip Planner

Search our weather history database for the weather conditions in past years. The results will help you decide how hot, cold, wet, or windy it might be!

Date:

Astronomy

Oct. 25, 2012 Rise Set
Actual Time 8:01 AM EDT 6:41 PM EDT
Civil Twilight 7:33 AM EDT 7:09 PM EDT
Nautical Twilight 7:00 AM EDT 7:41 PM EDT
Astronomical Twilight 6:28 AM EDT 8:14 PM EDT
Moon 4:29 PM EDT (10/25) 3:54 AM EDT (10/25)
Length of Visible Light 11h 36m
Length of Day
10h 39m
Waxing Gibbous, 84% of the Moon is Illuminated
Oct 25
Waxing Gibbous
Oct 29
Full
Nov 6
Last Quarter
Nov 13
New
Nov 20
First Quarter

Hourly Weather History & Observations

Time (EDT) Temp. Dew Point Humidity Pressure Visibility Wind Dir Wind Speed Gust Speed Precip Events Conditions
12:53 AM 64.0 °F 53.1 °F 67% 29.99 in 10.0 mi SSW 6.9 mph - N/A   Clear
1:53 AM 62.1 °F 53.1 °F 72% 29.99 in 10.0 mi South 5.8 mph - N/A   Clear
2:53 AM 61.0 °F 52.0 °F 72% 29.98 in 10.0 mi South 5.8 mph - N/A   Clear
3:53 AM 59.0 °F 52.0 °F 78% 29.97 in 10.0 mi South 5.8 mph - N/A   Clear
4:53 AM 60.1 °F 52.0 °F 75% 29.96 in 10.0 mi South 5.8 mph - N/A   Clear
5:53 AM 59.0 °F 51.1 °F 75% 29.97 in 10.0 mi SSE 4.6 mph - N/A   Clear
6:53 AM 57.9 °F 51.1 °F 78% 29.98 in 10.0 mi SSE 5.8 mph - N/A   Clear
7:53 AM 57.0 °F 51.1 °F 81% 29.99 in 10.0 mi SSE 4.6 mph - N/A   Clear
8:53 AM 59.0 °F 52.0 °F 78% 30.00 in 10.0 mi South 6.9 mph - N/A   Clear
10:53 AM 68.0 °F 54.0 °F 61% 30.00 in 10.0 mi SSW 11.5 mph - N/A   Clear
11:53 AM 72.0 °F 55.9 °F 57% 29.97 in 10.0 mi SSW 13.8 mph 20.7 mph N/A   Clear
12:53 PM 73.9 °F 57.0 °F 55% 29.95 in 10.0 mi SSW 15.0 mph 25.3 mph N/A   Clear
1:53 PM 75.0 °F 55.9 °F 51% 29.92 in 10.0 mi South 17.3 mph 23.0 mph N/A   Partly Cloudy
2:53 PM 77.0 °F 54.0 °F 45% 29.90 in 10.0 mi SSW 15.0 mph 25.3 mph N/A   Clear
4:53 PM 75.9 °F 52.0 °F 43% 29.87 in 10.0 mi SSW 20.7 mph 27.6 mph N/A   Clear
5:53 PM 75.0 °F 52.0 °F 44% 29.87 in 10.0 mi South 11.5 mph - N/A   Clear
6:53 PM 73.0 °F 54.0 °F 51% 29.87 in 10.0 mi South 9.2 mph - N/A   Clear
7:53 PM 70.0 °F 54.0 °F 57% 29.88 in 10.0 mi South 8.1 mph - N/A   Clear
8:53 PM 70.0 °F 54.0 °F 57% 29.88 in 10.0 mi South 10.4 mph - N/A   Clear
9:53 PM 69.1 °F 54.0 °F 58% 29.88 in 10.0 mi South 11.5 mph - N/A   Clear
10:53 PM 69.1 °F 54.0 °F 58% 29.88 in 10.0 mi South 12.7 mph - N/A   Mostly Cloudy
11:53 PM 68.0 °F 53.1 °F 59% 29.88 in 10.0 mi South 11.5 mph - N/A   Overcast